Location: Berlin
(38.3226°N, 75.2177°W)
Time: 23:09:28
(UTC+00:00)

Cosmos 1300 - Pass Details

Date: 26 October 2020
Orbit: 511 x 513 km, 82.5° (Epoch: 25 November)

Event Time Altitude Azimuth Distance (km) Brightness Sun altitude
Rises 10:22:42 0° 347° (NNW) 2,634 6.1 -12.1°
Reaches altitude 10° 10:24:53 10° 342° (NNW) 1,743 5.1 -11.7°
Maximum altitude 10:28:35 52° 266° (W) 644 2.8 -11.0°
Drops below altitude 10° 10:32:17 10° 190° (S) 1,727 5.3 -10.2°
Sets 10:34:25 0° 185° (S) 2,608 6.3 -9.8°
